Regional Weather Roundup
Issued by NWS

Home | Current Version | Previous Version | Graphics & Text | Print | Product List | Glossary Off
Versions: 1 2 3 4 5 6 7 8 9 10 11 12 13 14 15 16 17 18 19 20 21 22 23 24 25 26 27 28 29 30 31 32 33 34 35 36 37 38 39 40 41 42 43 44 45 46 47 48 49 50

000
ASUS43 KDMX 231901
RWRIA

WEATHER ROUNDUP FOR IOWA
NATIONAL WEATHER SERVICE DES MOINES IA
200 PM CDT SUN JUL 23 2017

NOTE: "FAIR" INDICATES FEW OR NO CLOUDS BELOW 12,000 FEET WITH NO
SIGNIFICANT WEATHER AND/OR OBSTRUCTIONS TO VISIBILITY.

* - THESE STATIONS ARE NOT NWS STATIONS...THUS NOT UNDER NWS
QUALITY CONTROL.  THEY ALSO DO NOT REPORT WEATHER SUCH
AS PRECIPITATION OR FOG.

IAZ001>003-012>014-020>022-031>034-043>046-232000-
   NORTHWEST IOWA

CITY           SKY/WX    TMP DP  RH WIND       PRES   REMARKS
CARROLL *      SUNNY     82  66  57 NW16      29.95F HX  85
CHEROKEE *     SUNNY     80  60  51 N12       29.98F HX  80
DENISON *      SUNNY     82  61  47 NW10      29.98F HX  83
ORANGE CITY *  SUNNY     79  63  57 N10       30.00S HX  80
SHELDON *      MOSUNNY   77  61  57 N12G20    29.99S
SIOUX CITY     SUNNY     85  60  42 N13       29.97F HX  85
SPENCER        SUNNY     80  59  48 N16G24    29.98F HX  81
STORM LAKE *     N/A     79  59  50 N17       29.98F HX  80
$$

IAZ055>058-069>071-079>083-090>094-232000-
   SOUTHWEST IOWA

CITY           SKY/WX    TMP DP  RH WIND       PRES   REMARKS
ATLANTIC *     SUNNY     86  63  45 N13G18    29.94F HX  87
AUDUBON *      SUNNY     84  63  48 NW12      29.97S HX  85
CLARINDA *     SUNNY     86  73  66 NW9G15    29.95S HX  93
COUNCIL BLFS * MOSUNNY   86  68  54 N10       29.96R HX  89
CRESTON *      SUNNY     90  63  40 NW15      29.94F HX  90
HARLAN  *      SUNNY     84  63  48 N14       29.99F HX  85
LAMONI         SUNNY     91  69  48 NW9       29.91F HX  96
RED OAK *      SUNNY     88  72  58 NW9       29.94F HX  94
SHENANDOAH *   MOSUNNY   86  73  66 N8        29.94F HX  93
$$

IAZ047>049-059>061-072>074-084-232000-
   CENTRAL IOWA

CITY           SKY/WX    TMP DP  RH WIND       PRES   REMARKS
AMES           SUNNY     82  66  58 NW13      29.92F HX  84
ANKENY *       SUNNY     86  61  42 N15       29.93S HX  86
BOONE *        SUNNY     82  61  47 NW20      29.93S HX  83
CHARITON *     SUNNY     90  66  45 N15G22    29.90S HX  92
DES MOINES     MOSUNNY   88  58  36 N15       29.91S HX  87
GRINNELL*      SUNNY     81  64  55 NW15G22   29.92S HX  82
KNOXVILLE *    SUNNY     88  57  35 NW15      29.90S HX  86
MARSHALLTOWN   SUNNY     84  63  49 NW15      29.91S HX  85
NEWTON *       SUNNY     82  61  47 N17       29.91F HX  83
PELLA *        SUNNY     87  60  40 NW12      29.91F HX  87
$$

IAZ004>006-015-016-023>025-035-036-232000-
   NORTH CENTRAL IOWA

CITY           SKY/WX    TMP DP  RH WIND       PRES   REMARKS
ALGONA *       MOSUNNY   77  61  57 N15       29.96S
CLARION *      MOSUNNY   77  61  57 NW18      29.95S
ESTHERVILLE    MOSUNNY   75  61  61 N16G24    29.98S
FORT DODGE *   MOSUNNY   81  63  54 NW12      29.96S HX  82
MASON CITY     MOSUNNY   78  61  55 NW18G26   29.95S HX  80
FOREST CITY *  PTSUNNY   75  61  60 NW12      29.95S
WEBSTER CITY * MOSUNNY   81  63  54 NW14G21   29.93S HX  82
IOWA FALLS *     N/A     80  62  54 NW14G22   29.94S HX  81
$$

IAZ007>011-017>019-026>030-037>042-050>054-066-232000-
   NORTHEAST IOWA

CITY           SKY/WX    TMP DP  RH WIND       PRES   REMARKS
CEDAR RAPIDS   SUNNY     83  69  62 NW15      29.86S HX  86
CHARLES CITY * PTSUNNY   77  61  57 NW13G22   29.92S
DECORAH *      PTSUNNY   77  63  61 NW14G20   29.88S
DUBUQUE        SUNNY     82  69  64 W15       29.83F HX  85
MONTICELLO *   MOSUNNY   82  70  65 W16G25    29.84F HX  86
OELWEIN *        N/A    N/A N/A N/A MISG        N/A
WATERLOO       MOSUNNY   80  62  54 NW15      29.88S HX  81
$$

IAZ064-065-067-068-078-232000-
   EAST CENTRAL IOWA

CITY           SKY/WX    TMP DP  RH WIND       PRES   REMARKS
DAVENPORT      SUNNY     86  69  56 W18G24    29.85F HX  90
IOWA CITY      SUNNY     87  67  51 NW18G24   29.87S HX  90
MUSCATINE *    SUNNY     88  64  45 W17G24    29.84F HX  89
QUAD CITIES    MOSUNNY   89  71  55 W18       29.82F HX  95
$$

IAZ062-063-075>077-085>089-095>099-232000-
   SOUTHEAST IOWA

CITY           SKY/WX    TMP DP  RH WIND       PRES   REMARKS
BURLINGTON     SUNNY     90  71  53 NW8       29.85F HX  96
FAIRFIELD *    SUNNY     88  68  51 NW14G21   29.87S HX  91
FORT MADISON * SUNNY     90  70  51 NW10      29.86F HX  95
KEOKUK *       PTSUNNY   91  68  46 VRB5G12   29.85F HX  95
OSKALOOSA *      N/A     88  64  44 NW12G20   29.89F HX  89
OTTUMWA        SUNNY     92  60  34 NW21G26   29.88F HX  91
WASHINGTON *   SUNNY     86  66  51 NW14      29.88S HX  88
$$

ABBREVIATIONS USED IN REMARKS
   TC - TEMPERATURES IN CELSIUS
  WCI - WIND CHILL INDEX
   HX - HEAT INDEX
  VSB - VISIBILITY
$$





USA.gov is the U.S. government's official web portal to all federal, state and local government web resources and services.